Regional Weather Roundup
Issued by NWS State College, PA

Home | Current Version | Previous Version | Graphics & Text | Print | Product List | Glossary On
Versions: 1 2 3 4 5 6 7 8 9 10 11 12 13 14 15 16 17 18 19 20 21 22 23 24 25 26 27 28 29 30 31 32 33 34 35 36 37 38 39 40 41 42 43 44 45 46 47 48 49 50
000
ASUS41 KCTP 282303
RWRCTP

REGIONAL WEATHER ROUNDUP
NATIONAL WEATHER SERVICE STATE COLLEGE PA
700 PM EDT FRI AUG 28 2015

Note: "fair" indicates few or no clouds below 12,000 feet with no
significant weather and/or obstructions to visibility.

* = STATION THAT DOES NOT REPORT PRECIPITATION /E.G. RAIN...SNOW...ETC/
    THUNDER OR FOG.

PAZ002>004-007>009-013>016-020>023-029>032-290000-
WESTERN PENNSYLVANIA

CITY           SKY/WX    TMP DP  RH WIND       PRES   REMARKS
ERIE           SUNNY     69  56  62 NE5       30.17F
MEADVILLE      SUNNY     72  55  55 CALM      30.18S
FRANKLIN*      SUNNY     70  55  60 CALM      30.20R
NEW CASTLE     FAIR      74  62  66 CALM      30.16S
BEAVER COUNTY  SUNNY     75  54  46 CALM      30.16S
BUTLER*        SUNNY     73  57  56 CALM      30.18S
PITTSBURGH INT MOSUNNY   77  53  43 NW8       30.15S
PITTSBURGH     SUNNY     76  45  33 S6        30.15S
INDIANA*       CLEAR     75  55  50 N3        30.20S
LATROBE        PTCLDY    77  54  44 CALM      30.16S
WASHINGTON CO* SUNNY     72  57  60 CALM      30.16S
$$

PAZ004>006-010>012-017>019-024>028-033>037-041-042-045-046-049>053-290000-
CENTRAL PENNSYLVANIA

CITY           SKY/WX    TMP DP  RH WIND       PRES   REMARKS
BRADFORD       PTCLDY    69  53  56 NW5       30.20S
DUBOIS         MOCLDY    73  55  53 CALM      30.18S
CLEARFIELD     MOCLDY    73  52  47 CALM      30.19R
JOHNSTOWN      PTCLDY    72  52  49 NE5       30.20R
ALTOONA        CLEAR     74  52  46 CALM      30.18R
STATE COLLEGE  PTCLDY    73  54  49 CALM      30.17S
WILLIAMSPORT   CLEAR     73  58  59 SE5       30.14S
SELINSGROVE    CLEAR     70  62  76 CALM      30.15S
FT INDIANTOWN  CLEAR     73  62  67 N2        30.14F
CAPITAL CITY   CLEAR     77  57  50 S3        30.14S
HARRISBURG     PTCLDY    76  63  64 CALM      30.13F
YORK           CLEAR     77  59  53 CALM      30.14F
$$

PAZ038>040-043-044-047-048-054-055-060>062-067>071-290000-
EASTERN PENNSYLVANIA

CITY           SKY/WX    TMP DP  RH WIND       PRES   REMARKS
SCRANTON       MOCLDY    74  52  46 VRB3      30.17S
MOUNT POCONO   CLEAR     69  51  52 NW5       30.21R
ALLENTOWN      CLEAR     78  55  44 CALM      30.15S
QUAKERTOWN*    PTCLDY    77  55  47 CALM      30.16S
READING        CLEAR     77  54  44 CALM      30.13F
LANCASTER      CLEAR     76  54  46 W3        30.14F
COATESVILLE    MOCLDY    75  57  53 CALM      30.17S
POTTSTOWN      CLEAR     76  57  51 NW3       30.16F
BLUE BELL      CLEAR     77  59  53 CALM      30.14F
DOYLESTOWN     PTCLDY    74  56  53 CALM      30.14S
WILLOW GROVE   NOT AVBL
NORTH PHILA    CLEAR     79  52  38 NW7       30.15S
PHILADELPHIA   PTCLDY    82  52  35 NW8       30.14S
$$



USA.gov is the U.S. government's official web portal to all federal, state and local government web resources and services.